Home > Weather > Freehold > Past weeks

Flag for U.S.A. Weather for the Past 2 Weeks in Freehold, New Jersey, U.S.A.

Now
30 °F

Overcast.


Feels Like: 30 °F
Forecast: 28 / 38 °F
Wind: No wind

Location: Belmar-Farmdale

Current Time: Feb 9, 2016 at 10:47:17 PM

Latest Report: Feb 9, 2016 at 9:55 PM


Visibility: 3 mi

Pressure: 29.61 "Hg

Humidity: 80%

Dew point: 25 °F

Location of FreeholdLocation

Historic Weather in Freehold — Graph

°F

Freehold Temperature Yesterday

Maximum temperature yesterday: 39 °F (at 12:15 AM)
Minimum temperature yesterday: 30 °F (at 5:55 PM)
Average temperature yesterday: 34 °F

High & Low Weather Summary for the Past Weeks

 TemperatureHumidityPressure
High59 °F (Jan 31, 2:35 PM)82% (Feb 3, 4:35 PM)30.44 "Hg (Feb 3, 4:35 PM)
Low19 °F (Jan 28, 7:15 AM)34% (Jan 31, 2:35 PM)29.48 "Hg (Jan 29, 7:15 AM)
Average39 °F59%29.99 "Hg
* Reported Jan 25 9:15 PM — Feb 9 9:15 PM, Freehold, Weather by CustomWeather, © 2016

Note: Actual official high and low records may vary slightly from our data, if they occured in-between our weather recording intervals... More about our weather records

Advertising

Freehold Weather History for the Previous 24 Hours

 ConditionsComfort  
Time TempWeatherWind HumidityBarometerVisibility
9:15 PM
Tue, Feb 9
30 °FOvercast.No wind80%29.62 "Hg2 mi
8:35 PM30 °FOvercast.No wind80%29.62 "Hg2 mi
7:55 PM32 °FMostly cloudy.No wind69%29.62 "Hg3 mi
7:15 PM32 °FOvercast.No wind69%29.61 "Hg10 mi
6:35 PM32 °FOvercast.No wind69%29.60 "Hg10 mi
5:55 PM32 °FOvercast.3 mph64%29.60 "Hg7 mi
5:15 PM34 °FMostly cloudy.No wind60%29.58 "Hg10 mi
4:35 PM34 °FOvercast.5 mph60%29.58 "Hg10 mi
3:55 PM34 °FOvercast.3 mph60%29.57 "Hg10 mi
3:35 PM34 °FOvercast.No wind60%29.57 "Hg10 mi
3:15 PM34 °FOvercast.3 mph60%29.57 "Hg10 mi
2:55 PM34 °FOvercast.8 mph60%29.56 "Hg10 mi
2:35 PM34 °FOvercast.8 mph60%29.56 "Hg10 mi
2:15 PM34 °FOvercast.7 mph60%29.56 "Hg10 mi
1:55 PM32 °FOvercast.6 mph64%29.56 "Hg10 mi
1:35 PM32 °FOvercast.8 mph64%29.56 "Hg10 mi
1:15 PM32 °FOvercast.8 mph64%29.57 "Hg10 mi
12:55 PM32 °FOvercast.7 mph64%29.57 "Hg10 mi
12:35 PM32 °FOvercast.7 mph64%29.58 "Hg10 mi
12:15 PM30 °FOvercast.6 mph69%29.59 "Hg10 mi
11:55 AM30 °FOvercast.8 mph69%29.59 "Hg10 mi
10:55 AM32 °FOvercast.9 mph64%29.60 "Hg10 mi
10:35 AM32 °FOvercast.12 mph69%29.60 "Hg10 mi
10:15 AM32 °FOvercast.12 mph69%29.60 "Hg10 mi
9:35 AM32 °FOvercast.9 mph69%29.62 "Hg10 mi
9:15 AM32 °FOvercast.10 mph69%29.63 "Hg9 mi
8:35 AM32 °FOvercast.14 mph69%29.63 "Hg10 mi
8:15 AM32 °FOvercast.10 mph64%29.63 "Hg10 mi
7:55 AM30 °FOvercast.12 mph75%29.63 "Hg8 mi
7:15 AM30 °FOvercast.10 mph69%29.65 "Hg7 mi
6:35 AM30 °FOvercast.12 mph69%29.65 "Hg10 mi
5:35 AM30 °FOvercast.12 mph69%29.64 "Hg10 mi
5:15 AM30 °FOvercast.8 mph69%29.63 "Hg10 mi
4:55 AM30 °FOvercast.12 mph69%29.63 "Hg10 mi
4:35 AM30 °FOvercast.9 mph69%29.62 "Hg10 mi
3:55 AM30 °FOvercast.10 mph69%29.64 "Hg10 mi
3:15 AM30 °FMostly cloudy.8 mph75%29.67 "Hg10 mi
2:55 AM30 °FOvercast.9 mph75%29.68 "Hg10 mi
2:35 AM30 °FMostly cloudy.9 mph75%29.68 "Hg5 mi
2:15 AM30 °FMostly cloudy.6 mph75%29.70 "Hg3 mi
1:55 AM30 °FMostly cloudy.5 mph69%29.70 "Hg2 mi
1:15 AM30 °FMostly cloudy.5 mph69%29.71 "Hg2 mi
12:55 AM30 °FOvercast.7 mph69%29.72 "Hg4 mi
12:35 AM30 °FOvercast.6 mph69%29.72 "Hg5 mi
11:55 PM
Mon, Feb 8
30 °FOvercast.7 mph69%29.73 "Hg10 mi
11:35 PM30 °FOvercast.6 mph69%29.73 "Hg10 mi
10:55 PM30 °FOvercast.9 mph69%29.74 "Hg10 mi
10:35 PM30 °FOvercast.7 mph69%29.75 "Hg10 mi
10:15 PM30 °FOvercast.7 mph69%29.77 "Hg10 mi
Weather by CustomWeather, © 2016

See weather overviewHow to use our weather pages